Horntown, VA

4:46 PM EST on February 06, 2016 (GMT -0500)
Wallops Flight Facility

Weather History for KWAL - February, 2014

Change the Weather History Date:

Wednesday, February 5, 2014

  Actual Average Record
Temperature  
Mean Temperature 42 °F 37 °F  
Max Temperature 49 °F 46 °F 72 °F (2008)
Min Temperature 35 °F 29 °F 3 °F (1991)
Degree Days  
Heating Degree Days 23    
Month to date heating degree days 118  
Since 1 July heating degree days 2375  
Cooling Degree Days 0    
Month to date cooling degree days 0  
Year to date cooling degree days 0  
Moisture  
Dew Point 39 °F    
Average Humidity 90    
Maximum Humidity 100    
Minimum Humidity 79    
Precipitation  
Precipitation 0.26 in 0.10 in 0.93 in (2001)
Month to date precipitation 1.03 0.48  
Year to date precipitation 3.99 3.52  
Sea Level Pressure  
Sea Level Pressure 29.87 in    
Wind  
Wind Speed 8 mph (WNW)    
Max Wind Speed 16 mph    
Max Gust Speed 18 mph    
Visibility 4 miles    
Events Rain    
T = Trace of Precipitation, MM = Missing Value Source: NWS Daily Summary

Daily Weather History Graph

Daily Weather History Graph

Search for Another Location

Airport or City:

Trip Planner

Search our weather history database for the weather conditions in past years. The results will help you decide how hot, cold, wet, or windy it might be!

Date:

Astronomy

Feb. 05, 2014 Rise Set
Actual Time 7:02 AM EST 5:29 PM EST
Civil Twilight 6:35 AM EST 5:57 PM EST
Nautical Twilight 6:03 AM EST 6:28 PM EST
Astronomical Twilight 5:33 AM EST 6:59 PM EST
Moon 10:22 AM EST (2/5) No Moon Set
Length of Visible Light 11h 22m
Length of Day
10h 27m
Waxing Crescent, 39% of the Moon is Illuminated
Feb 5
Waxing Crescent
Feb 6
First Quarter
Feb 14
Full
Feb 22
Last Quarter
Mar 1
New

Hourly Weather History & Observations

Time (EST) Temp. Windchill Dew Point Humidity Pressure Visibility Wind Dir Wind Speed Gust Speed Precip Events Conditions
12:09 AM 39.0 °F 30.6 °F 37.0 °F 93% 30.11 in 2.5 mi East 15.0 mph - 0.02 in Rain Rain
12:23 AM 39.0 °F 31.0 °F 37.9 °F 96% 30.09 in 2.0 mi ENE 13.8 mph - 0.05 in Rain Light Rain
12:54 AM 39.9 °F 32.9 °F 39.0 °F 97% 30.06 in 2.5 mi East 11.5 mph - 0.08 in Rain Light Rain
1:13 AM 41.0 °F 35.2 °F 39.0 °F 93% 30.05 in 2.0 mi East 9.2 mph - 0.02 in Rain Light Rain
1:21 AM 39.9 °F 33.4 °F 39.0 °F 97% 30.04 in 1.8 mi East 10.4 mph - 0.02 in Rain Light Rain
1:54 AM 44.1 °F 39.0 °F 43.0 °F 96% 30.00 in 1.5 mi East 9.2 mph - 0.04 in Rain Light Rain
2:09 AM 46.0 °F 41.0 °F 45.0 °F 96% 29.99 in 2.5 mi ESE 10.4 mph 17.3 mph 0.02 in Rain Rain
2:22 AM 46.9 °F - 46.0 °F 97% 29.98 in 3.0 mi ESE 8.1 mph - 0.03 in Rain Light Rain
2:51 AM 46.4 °F 43.5 °F 46.4 °F 100% 29.96 in 2.5 mi ESE 5.8 mph - 0.07 in Rain Light Rain
2:54 AM 46.9 °F - 46.0 °F 97% 29.95 in 2.5 mi SE 5.8 mph - 0.07 in Rain Light Rain
3:00 AM 46.9 °F - 46.0 °F 97% 29.95 in 1.5 mi SE 6.9 mph - 0.00 in Rain Light Rain
3:10 AM 48.0 °F - 46.9 °F 96% 29.95 in 1.0 mi South 4.6 mph - 0.00 in Rain Light Rain
3:24 AM 46.9 °F - 46.9 °F 100% 29.94 in 1.2 mi South 5.8 mph - 0.01 in Rain Light Rain
3:31 AM 46.9 °F - 46.9 °F 100% 29.94 in 1.0 mi SW 4.6 mph - 0.02 in Rain Rain
3:39 AM 48.0 °F - 46.9 °F 96% 29.95 in 2.0 mi WNW 8.1 mph - 0.05 in Rain Light Rain
3:41 AM 48.0 °F - 46.9 °F 96% 29.95 in 3.0 mi WNW 10.4 mph - 0.05 in Rain Light Rain
3:54 AM 48.9 °F - 48.0 °F 97% 29.94 in 8.0 mi NW 8.1 mph - 0.05 in Rain Light Rain
4:54 AM 43.0 °F 38.8 °F 42.1 °F 97% 29.88 in 6.0 mi NNE 6.9 mph - 0.01 in   Overcast
5:18 AM 42.1 °F 38.4 °F 41.0 °F 96% 29.88 in 2.0 mi North 5.8 mph - N/A   Overcast
5:47 AM 41.0 °F - 39.9 °F 96% 29.87 in 1.8 mi Calm Calm - N/A   Overcast
5:54 AM 41.0 °F 39.0 °F 39.9 °F 96% 29.85 in 1.5 mi NE 3.5 mph - N/A   Overcast
6:15 AM 41.0 °F 39.0 °F 39.9 °F 96% 29.86 in 1.0 mi NNW 3.5 mph - N/A   Mist
6:37 AM 39.9 °F 35.8 °F 39.9 °F 100% 29.87 in 1.2 mi NW 5.8 mph - N/A   Overcast
6:50 AM 39.2 °F 33.0 °F 39.2 °F 100% 29.89 in 1.0 mi WNW 9.2 mph - N/A   Mist
6:54 AM 39.9 °F 33.9 °F 39.0 °F 97% 29.88 in 1.0 mi WNW 9.2 mph - N/A   Mist
7:05 AM 39.0 °F 33.4 °F 37.9 °F 96% 29.89 in 1.2 mi West 8.1 mph - N/A   Overcast
7:30 AM 37.9 °F 31.5 °F 37.0 °F 97% 29.90 in 1.0 mi WNW 9.2 mph - N/A   Overcast
7:39 AM 37.0 °F 29.8 °F 36.0 °F 96% 29.90 in 1.2 mi WNW 10.4 mph 17.3 mph N/A   Overcast
7:54 AM 36.0 °F 28.5 °F 35.1 °F 97% 29.87 in 1.2 mi NW 10.4 mph - N/A   Overcast
8:42 AM 36.0 °F 32.1 °F 35.1 °F 97% 29.87 in 2.0 mi NNW 4.6 mph - N/A   Overcast
8:49 AM 35.6 °F 31.7 °F 35.6 °F 100% 29.87 in 2.5 mi NNW 4.6 mph - N/A   Overcast
8:54 AM 36.0 °F 33.3 °F 35.1 °F 97% 29.87 in 2.5 mi NW 3.5 mph - N/A   Overcast
9:01 AM 36.0 °F - 35.1 °F 97% 29.87 in 3.0 mi Calm Calm - N/A   Overcast
9:54 AM 37.0 °F 31.0 °F 36.0 °F 96% 29.81 in 3.0 mi South 8.1 mph - N/A   Overcast
10:54 AM 37.0 °F 31.6 °F 36.0 °F 96% 29.78 in 6.0 mi SSW 6.9 mph - 0.00 in Rain Light Rain
11:42 AM 37.0 °F 31.6 °F 36.0 °F 96% 29.77 in 2.0 mi WSW 6.9 mph - 0.00 in   Overcast
11:49 AM 37.4 °F 32.1 °F 35.6 °F 93% 29.77 in 1.0 mi SW 6.9 mph - 0.00 in   Overcast
11:54 AM 37.0 °F 31.0 °F 36.0 °F 96% 29.76 in 1.0 mi WSW 8.1 mph - 0.00 in   Overcast
12:17 PM 37.9 °F 33.5 °F 37.0 °F 97% 29.75 in 0.8 mi West 5.8 mph - N/A   Overcast
12:40 PM 36.0 °F 29.0 °F 35.1 °F 97% 29.75 in 1.0 mi WNW 9.2 mph - N/A   Overcast
12:47 PM 36.0 °F 28.5 °F 35.1 °F 97% 29.75 in 1.5 mi WNW 10.4 mph - N/A   Overcast
12:54 PM 36.0 °F 30.3 °F 35.1 °F 97% 29.74 in 1.2 mi WNW 6.9 mph - 0.00 in Rain Light Rain
1:03 PM 37.0 °F 29.8 °F 36.0 °F 96% 29.74 in 2.5 mi West 10.4 mph - 0.01 in Rain Light Rain
1:11 PM 37.0 °F 30.4 °F 36.0 °F 96% 29.73 in 6.0 mi WSW 9.2 mph - 0.01 in   Overcast
1:43 PM 37.9 °F 32.7 °F 37.0 °F 97% 29.71 in 10.0 mi West 6.9 mph - 0.01 in   Overcast
1:54 PM 39.0 °F 32.3 °F 37.0 °F 93% 29.69 in 10.0 mi West 10.4 mph - 0.01 in   Overcast
2:13 PM 39.9 °F 32.5 °F 39.0 °F 97% 29.70 in 10.0 mi West 12.7 mph - N/A   Overcast
2:54 PM 42.1 °F 36.1 °F 39.0 °F 89% 29.71 in 10.0 mi West 10.4 mph 18.4 mph N/A   Overcast
3:54 PM 42.1 °F 36.6 °F 39.0 °F 89% 29.73 in 10.0 mi West 9.2 mph - N/A   Overcast
4:54 PM 41.0 °F 36.4 °F 37.9 °F 89% 29.76 in 10.0 mi WNW 6.9 mph - N/A   Overcast
5:38 PM 41.0 °F 38.0 °F 37.9 °F 89% 29.79 in 10.0 mi WNW 4.6 mph - N/A   Overcast
5:54 PM 41.0 °F 38.0 °F 37.9 °F 89% 29.80 in 10.0 mi NW 4.6 mph - N/A   Overcast
6:41 PM 41.0 °F 39.0 °F 37.9 °F 89% 29.84 in 10.0 mi NW 3.5 mph - N/A   Overcast
6:54 PM 41.0 °F 38.0 °F 37.9 °F 89% 29.84 in 10.0 mi NNW 4.6 mph - N/A   Overcast
7:32 PM 41.0 °F 36.4 °F 37.9 °F 89% 29.87 in 8.0 mi NW 6.9 mph - N/A   Overcast
7:54 PM 41.0 °F 35.8 °F 37.9 °F 89% 29.88 in 7.0 mi NW 8.1 mph - N/A   Overcast
8:40 PM 39.0 °F 34.8 °F 37.0 °F 93% 29.91 in 7.0 mi WNW 5.8 mph - N/A   Mostly Cloudy
8:51 PM 39.2 °F 35.9 °F 37.4 °F 93% 29.92 in 7.0 mi NW 4.6 mph - N/A   Mostly Cloudy
8:54 PM 39.0 °F 34.8 °F 37.0 °F 93% 29.91 in 7.0 mi NW 5.8 mph - N/A   Mostly Cloudy
9:54 PM 39.9 °F 35.8 °F 36.0 °F 86% 29.95 in 10.0 mi NW 5.8 mph - N/A   Partly Cloudy
10:54 PM 39.0 °F 31.8 °F 33.1 °F 79% 29.97 in 10.0 mi NW 11.5 mph - N/A   Clear